| time (UTC) | temp F | wind direction | speed MPH | gust MPH | rain 1hr in | rain 24hr in | rain mn in | humidity % | barometer mb |
| 20260507140552 | 58 | 342 | 2.0 | 4.0 | 0.00 | 0.09 | 0.00 | 45 | 1012.2 |
| 20260507140027 | 57 | 257 | 1.0 | 4.0 | 0.00 | 0.09 | 0.00 | 46 | 1012.3 |
| 20260507135547 | 56 | 278 | 3.0 | 5.0 | 0.00 | 0.17 | 0.00 | 43 | 1012.4 |
| 20260507135046 | 56 | 286 | 1.0 | 5.0 | 0.00 | 0.17 | 0.00 | 47 | 1012.6 |
| 20260507134538 | 56 | 5 | 2.0 | 5.0 | 0.00 | 0.17 | 0.00 | 48 | 1012.6 |
| 20260507134041 | 56 | 37 | 2.0 | 5.0 | 0.00 | 0.17 | 0.00 | 47 | 1012.6 |
| 20260507133534 | 55 | 5 | 2.0 | 5.0 | 0.00 | 0.17 | 0.00 | 48 | 1012.7 |
| 20260507133035 | 55 | 23 | 2.0 | 4.0 | 0.00 | 0.17 | 0.00 | 45 | 1012.7 |
| 20260507132527 | 55 | 309 | 2.0 | 4.0 | 0.00 | 0.17 | 0.00 | 49 | 1012.7 |
| 20260507132035 | 55 | 297 | 1.0 | 4.0 | 0.00 | 0.17 | 0.00 | 49 | 1012.8 |
| 20260507131528 | 54 | 298 | 1.0 | 3.0 | 0.00 | 0.17 | 0.00 | 49 | 1012.7 |
| 20260507131049 | 54 | 342 | 1.0 | 3.0 | 0.00 | 0.17 | 0.00 | 50 | 1012.8 |
| 20260507130539 | 54 | 342 | 1.0 | 4.0 | 0.00 | 0.17 | 0.00 | 52 | 1012.7 |
| 20260507130059 | 54 | 342 | 1.0 | 4.0 | 0.00 | 0.17 | 0.00 | 53 | 1012.7 |
| 20260507125558 | 54 | 14 | 3.0 | 6.0 | 0.00 | 0.19 | 0.00 | 52 | 1012.7 |
| 20260507125033 | 54 | 329 | 3.0 | 6.0 | 0.00 | 0.19 | 0.00 | 52 | 1012.7 |
| 20260507124525 | 54 | 324 | 2.0 | 6.0 | 0.00 | 0.19 | 0.00 | 54 | 1012.6 |
| 20260507124047 | 53 | 348 | 3.0 | 6.0 | 0.00 | 0.19 | 0.00 | 56 | 1012.6 |
| 20260507123541 | 53 | 333 | 4.0 | 6.0 | 0.00 | 0.19 | 0.00 | 54 | 1012.7 |
| 20260507123042 | 53 | 334 | 5.0 | 6.0 | 0.00 | 0.19 | 0.00 | 53 | 1012.6 |
| 20260507122541 | 53 | 326 | 4.0 | 6.0 | 0.00 | 0.19 | 0.00 | 54 | 1012.7 |
| 20260507122038 | 53 | 323 | 2.0 | 6.0 | 0.00 | 0.19 | 0.00 | 57 | 1012.7 |
| 20260507121531 | 53 | 302 | 2.0 | 6.0 | 0.00 | 0.19 | 0.00 | 56 | 1012.7 |
| 20260507121027 | 52 | 288 | 3.0 | 6.0 | 0.00 | 0.19 | 0.00 | 58 | 1012.6 |
| 20260507120543 | 52 | 300 | 2.0 | 5.0 | 0.00 | 0.19 | 0.00 | 58 | 1012.6 |
| 20260507120042 | 52 | 303 | 2.0 | 4.0 | 0.00 | 0.19 | 0.00 | 60 | 1012.6 |
| 20260507115603 | 52 | 321 | 1.0 | 4.0 | 0.00 | 0.21 | 0.00 | 59 | 1012.5 |
| 20260507115101 | 52 | 321 | 2.0 | 5.0 | 0.00 | 0.21 | 0.00 | 59 | 1012.5 |
| 20260507114531 | 52 | 307 | 2.0 | 5.0 | 0.00 | 0.21 | 0.00 | 58 | 1012.6 |
| 20260507114026 | 52 | 323 | 3.0 | 4.0 | 0.00 | 0.21 | 0.00 | 59 | 1012.6 |
| 20260507113540 | 52 | 305 | 2.0 | 4.0 | 0.00 | 0.21 | 0.00 | 59 | 1012.6 |
| 20260507113059 | 52 | 304 | 1.0 | 5.0 | 0.00 | 0.21 | 0.00 | 60 | 1012.5 |
| 20260507112557 | 52 | 327 | 3.0 | 5.0 | 0.00 | 0.21 | 0.00 | 59 | 1012.4 |
| 20260507112035 | 52 | 287 | 2.0 | 3.0 | 0.00 | 0.21 | 0.00 | 60 | 1012.4 |
| 20260507111525 | 51 | 288 | 1.0 | 4.0 | 0.00 | 0.21 | 0.00 | 60 | 1012.4 |
| 20260507111044 | 51 | 288 | 1.0 | 5.0 | 0.00 | 0.21 | 0.00 | 60 | 1012.3 |
| 20260507110541 | 51 | 274 | 3.0 | 5.0 | 0.00 | 0.21 | 0.00 | 59 | 1012.2 |
| 20260507110037 | 51 | 290 | 2.0 | 3.0 | 0.00 | 0.21 | 0.00 | 61 | 1012.0 |
| 20260507105529 | 51 | 275 | 2.0 | 3.0 | 0.00 | 0.22 | 0.00 | 59 | 1012.1 |
| 20260507105025 | 51 | 297 | 2.0 | 3.0 | 0.00 | 0.22 | 0.00 | 59 | 1012.0 |
| 20260507104543 | 51 | 297 | 1.0 | 3.0 | 0.00 | 0.22 | 0.00 | 58 | 1012.0 |
| 20260507104034 | 51 | 297 | 1.0 | 4.0 | 0.00 | 0.22 | 0.00 | 58 | 1011.9 |
| 20260507103530 | 52 | 309 | 2.0 | 4.0 | 0.00 | 0.22 | 0.00 | 58 | 1011.9 |
| 20260507103025 | 52 | 297 | 0.0 | 2.0 | 0.00 | 0.22 | 0.00 | 59 | 1011.8 |
| 20260507102538 | 52 | 297 | 1.0 | 2.0 | 0.00 | 0.22 | 0.00 | 59 | 1011.7 |
| 20260507102041 | 52 | 297 | 0.0 | 3.0 | 0.00 | 0.22 | 0.00 | 58 | 1011.7 |
| 20260507101558 | 52 | 297 | 1.0 | 3.0 | 0.00 | 0.22 | 0.00 | 57 | 1011.6 |
| 20260507101033 | 52 | 289 | 1.0 | 4.0 | 0.00 | 0.22 | 0.00 | 57 | 1011.5 |
| 20260507100525 | 52 | 302 | 1.0 | 4.0 | 0.00 | 0.22 | 0.00 | 56 | 1011.5 |
| 20260507100044 | 52 | 290 | 2.0 | 3.0 | 0.00 | 0.22 | 0.00 | 57 | 1011.6 |
| 20260507095543 | 52 | 271 | 1.0 | 3.0 | 0.00 | 0.22 | 0.00 | 57 | 1011.5 |
| 20260507095104 | 52 | 316 | 1.0 | 6.0 | 0.00 | 0.22 | 0.00 | 56 | 1011.4 |
| 20260507094540 | 52 | 316 | 2.0 | 6.0 | 0.00 | 0.22 | 0.00 | 55 | 1011.4 |
| 20260507094059 | 52 | 316 | 2.0 | 6.0 | 0.00 | 0.22 | 0.00 | 54 | 1011.4 |
| 20260507093534 | 52 | 335 | 4.0 | 8.0 | 0.00 | 0.22 | 0.00 | 54 | 1011.5 |
| 20260507093026 | 52 | 316 | 5.0 | 8.0 | 0.00 | 0.22 | 0.00 | 54 | 1011.5 |
| 20260507092543 | 52 | 325 | 2.0 | 4.0 | 0.00 | 0.22 | 0.00 | 56 | 1011.4 |
| 20260507092034 | 52 | 315 | 1.0 | 4.0 | 0.00 | 0.22 | 0.00 | 56 | 1011.2 |
| 20260507091527 | 52 | 325 | 2.0 | 4.0 | 0.00 | 0.22 | 0.00 | 56 | 1011.2 |
| 20260507091105 | 52 | 306 | 1.0 | 4.0 | 0.00 | 0.22 | 0.00 | 56 | 1011.3 |
| 20260507090541 | 52 | 290 | 0.0 | 2.0 | 0.00 | 0.22 | 0.00 | 57 | 1011.2 |
| 20260507090043 | 52 | 290 | 0.0 | 3.0 | 0.00 | 0.22 | 0.00 | 57 | 1011.1 |
| 20260507085536 | 52 | 327 | 1.0 | 3.0 | 0.00 | 0.22 | 0.00 | 57 | 1011.0 |
| 20260507085030 | 52 | 327 | 2.0 | 5.0 | 0.00 | 0.22 | 0.00 | 56 | 1011.0 |
| 20260507084525 | 52 | 325 | 1.0 | 5.0 | 0.00 | 0.22 | 0.00 | 55 | 1011.0 |
| 20260507084044 | 53 | 322 | 2.0 | 3.0 | 0.00 | 0.22 | 0.00 | 56 | 1010.9 |
| 20260507083602 | 53 | 322 | 1.0 | 3.0 | 0.00 | 0.22 | 0.00 | 55 | 1011.0 |
| 20260507083040 | 53 | 347 | 1.0 | 3.0 | 0.00 | 0.22 | 0.00 | 54 | 1010.8 |
| 20260507082533 | 53 | 347 | 0.0 | 4.0 | 0.00 | 0.22 | 0.00 | 54 | 1010.9 |
| 20260507082028 | 53 | 347 | 0.0 | 4.0 | 0.00 | 0.22 | 0.00 | 54 | 1010.8 |
| 20260507081525 | 53 | 12 | 1.0 | 5.0 | 0.00 | 0.22 | 0.00 | 53 | 1011.0 |
| 20260507081043 | 53 | 5 | 2.0 | 10.0 | 0.00 | 0.22 | 0.00 | 53 | 1010.9 |
| 20260507080541 | 53 | 23 | 4.0 | 10.0 | 0.00 | 0.22 | 0.00 | 53 | 1011.0 |
| 20260507080035 | 53 | 344 | 1.0 | 5.0 | 0.00 | 0.22 | 0.00 | 55 | 1011.0 |
| 20260507075530 | 53 | 341 | 2.0 | 5.0 | 0.00 | 0.22 | 0.00 | 55 | 1011.1 |
| 20260507075027 | 53 | 11 | 2.0 | 6.0 | 0.00 | 0.22 | 0.00 | 56 | 1010.9 |
| 20260507074545 | 53 | 355 | 2.0 | 6.0 | 0.00 | 0.22 | 0.00 | 55 | 1011.0 |
| 20260507074042 | 53 | 351 | 2.0 | 4.0 | 0.00 | 0.22 | 0.00 | 55 | 1011.1 |
| 20260507073535 | 53 | 327 | 2.0 | 5.0 | 0.00 | 0.22 | 0.00 | 55 | 1011.0 |
| 20260507073030 | 53 | 345 | 1.0 | 6.0 | 0.00 | 0.22 | 0.00 | 55 | 1011.0 |
| 20260507072545 | 53 | 5 | 2.0 | 6.0 | 0.00 | 0.22 | 0.00 | 54 | 1011.0 |
| 20260507072044 | 54 | 12 | 2.0 | 8.0 | 0.00 | 0.22 | 0.00 | 55 | 1011.0 |
| 20260507071541 | 54 | 9 | 1.0 | 8.0 | 0.00 | 0.22 | 0.00 | 54 | 1011.0 |
| 20260507071041 | 54 | 355 | 3.0 | 9.0 | 0.00 | 0.22 | 0.00 | 55 | 1010.8 |
| 20260507070533 | 54 | 360 | 4.0 | 9.0 | 0.00 | 0.22 | 0.00 | 55 | 1011.0 |
| 20260507070026 | 54 | 360 | 4.0 | 9.0 | 0.00 | 0.22 | 0.00 | 56 | 1011.1 |
| 20260507065542 | 54 | 5 | 4.0 | 12.0 | 0.00 | 0.22 | 0.00 | 57 | 1011.2 |
| 20260507065041 | 54 | 325 | 4.0 | 12.0 | 0.00 | 0.22 | 0.00 | 58 | 1011.0 |
| 20260507064538 | 54 | 346 | 5.0 | 12.0 | 0.00 | 0.22 | 0.00 | 60 | 1011.0 |
| 20260507064033 | 54 | 14 | 5.0 | 12.0 | 0.00 | 0.22 | 0.00 | 62 | 1010.9 |
| 20260507063527 | 54 | 308 | 6.0 | 12.0 | 0.00 | 0.22 | 0.00 | 64 | 1010.9 |
| 20260507063044 | 55 | 306 | 4.0 | 10.0 | 0.00 | 0.22 | 0.00 | 66 | 1010.9 |
| 20260507062538 | 55 | 5 | 4.0 | 12.0 | 0.00 | 0.22 | 0.00 | 66 | 1011.0 |
| 20260507062054 | 55 | 315 | 6.0 | 12.0 | 0.00 | 0.22 | 0.00 | 67 | 1011.1 |
| 20260507061524 | 55 | 355 | 4.0 | 10.0 | 0.00 | 0.22 | 0.00 | 69 | 1011.1 |
| 20260507061044 | 55 | 325 | 3.0 | 10.0 | 0.00 | 0.22 | 0.00 | 70 | 1011.1 |
| 20260507060601 | 55 | 326 | 4.0 | 10.0 | 0.00 | 0.22 | 0.00 | 69 | 1011.1 |
| 20260507060036 | 55 | 355 | 4.0 | 11.0 | 0.00 | 0.22 | 0.00 | 70 | 1011.0 |
| 20260507055554 | 55 | 350 | 5.0 | 11.0 | 0.00 | 0.22 | 0.00 | 70 | 1011.0 |
| 20260507055031 | 55 | 348 | 5.0 | 10.0 | 0.00 | 0.22 | 0.00 | 70 | 1011.0 |
| 20260507054544 | 55 | 348 | 4.0 | 10.0 | 0.00 | 0.22 | 0.00 | 70 | 1010.9 |
| 20260507054044 | 55 | 336 | 4.0 | 9.0 | 0.00 | 0.22 | 0.00 | 70 | 1010.7 |
| 20260507053543 | 55 | 350 | 3.0 | 9.0 | 0.00 | 0.22 | 0.00 | 70 | 1010.8 |
| 20260507053040 | 55 | 350 | 3.0 | 9.0 | 0.00 | 0.22 | 0.00 | 70 | 1010.9 |
| 20260507052532 | 55 | 34 | 3.0 | 8.0 | 0.00 | 0.22 | 0.00 | 70 | 1010.9 |
| 20260507052025 | 55 | 13 | 4.0 | 8.0 | 0.00 | 0.22 | 0.00 | 70 | 1010.9 |
| 20260507051535 | 55 | 355 | 4.0 | 6.0 | 0.00 | 0.22 | 0.00 | 69 | 1010.8 |
| 20260507051028 | 55 | 5 | 2.0 | 8.0 | 0.00 | 0.22 | 0.00 | 69 | 1010.9 |
| 20260507050540 | 55 | 5 | 4.0 | 9.0 | 0.00 | 0.22 | 0.00 | 68 | 1010.8 |
| 20260507050035 | 55 | 18 | 3.0 | 11.0 | 0.00 | 0.22 | 0.00 | 68 | 1010.8 |
| 20260507045527 | 56 | 360 | 6.0 | 11.0 | 0.00 | 0.22 | 0.00 | 67 | 1010.9 |
| 20260507045047 | 56 | 15 | 5.0 | 14.0 | 0.00 | 0.22 | 0.00 | 68 | 1010.9 |
| 20260507044605 | 56 | 19 | 4.0 | 14.0 | 0.00 | 0.22 | 0.00 | 67 | 1011.0 |
| 20260507044041 | 56 | 342 | 6.0 | 12.0 | 0.00 | 0.22 | 0.00 | 67 | 1010.9 |
| 20260507043559 | 56 | 355 | 4.0 | 12.0 | 0.00 | 0.22 | 0.00 | 67 | 1010.8 |
| 20260507043032 | 56 | 5 | 6.0 | 11.0 | 0.00 | 0.22 | 0.00 | 67 | 1010.8 |
| 20260507042525 | 56 | 350 | 5.0 | 11.0 | 0.00 | 0.22 | 0.00 | 68 | 1010.9 |
| 20260507042039 | 56 | 326 | 4.0 | 12.0 | 0.00 | 0.22 | 0.00 | 68 | 1011.0 |
| 20260507041556 | 56 | 342 | 5.0 | 12.0 | 0.00 | 0.22 | 0.00 | 68 | 1011.1 |
| 20260507041054 | 56 | 9 | 5.0 | 13.0 | 0.00 | 0.22 | 0.00 | 69 | 1011.0 |
| 20260507040524 | 56 | 355 | 6.0 | 15.0 | 0.00 | 0.22 | 0.00 | 69 | 1011.0 |
| 20260507040044 | 56 | 351 | 10.0 | 15.0 | 0.00 | 0.22 | 0.00 | 69 | 1011.2 |
| 20260507035541 | 56 | 333 | 8.0 | 14.0 | 0.00 | 0.22 | 0.22 | 70 | 1011.1 |
| 20260507035040 | 56 | 340 | 6.0 | 14.0 | 0.00 | 0.22 | 0.22 | 70 | 1010.9 |
| 20260507034537 | 56 | 319 | 5.0 | 18.0 | 0.00 | 0.22 | 0.22 | 70 | 1010.8 |
| 20260507034033 | 56 | 337 | 9.0 | 18.0 | 0.00 | 0.22 | 0.22 | 70 | 1010.8 |
| 20260507033550 | 56 | 345 | 9.0 | 17.0 | 0.00 | 0.22 | 0.22 | 71 | 1010.7 |
| 20260507033049 | 56 | 311 | 8.0 | 15.0 | 0.00 | 0.22 | 0.22 | 71 | 1010.8 |
| 20260507032542 | 56 | 327 | 9.0 | 15.0 | 0.00 | 0.22 | 0.22 | 72 | 1010.8 |
| 20260507032036 | 57 | 327 | 9.0 | 14.0 | 0.00 | 0.22 | 0.22 | 73 | 1010.9 |
| 20260507031528 | 57 | 348 | 7.0 | 10.0 | 0.00 | 0.22 | 0.22 | 73 | 1011.0 |
| 20260507031045 | 57 | 343 | 5.0 | 9.0 | 0.00 | 0.22 | 0.22 | 74 | 1011.2 |
| 20260507030539 | 57 | 344 | 2.0 | 9.0 | 0.00 | 0.22 | 0.22 | 75 | 1010.9 |
| 20260507030034 | 57 | 321 | 5.0 | 8.0 | 0.00 | 0.22 | 0.22 | 76 | 1011.2 |
| 20260507025525 | 57 | 347 | 3.0 | 8.0 | 0.00 | 0.22 | 0.22 | 76 | 1010.9 |
| 20260507025105 | 57 | 310 | 5.0 | 8.0 | 0.00 | 0.22 | 0.22 | 76 | 1010.9 |
| 20260507024539 | 57 | 317 | 4.0 | 7.0 | 0.00 | 0.22 | 0.22 | 76 | 1011.0 |
| 20260507024032 | 57 | 281 | 2.0 | 11.0 | 0.00 | 0.22 | 0.22 | 76 | 1011.0 |
| 20260507023525 | 57 | 272 | 4.0 | 11.0 | 0.00 | 0.22 | 0.22 | 76 | 1010.3 |
| 20260507023037 | 57 | 13 | 4.0 | 11.0 | 0.00 | 0.22 | 0.22 | 76 | 1010.6 |
| 20260507022529 | 57 | 338 | 4.0 | 16.0 | 0.00 | 0.22 | 0.22 | 76 | 1010.8 |
| 20260507022048 | 57 | 295 | 4.0 | 16.0 | 0.00 | 0.22 | 0.22 | 76 | 1010.9 |
| 20260507021544 | 57 | 355 | 7.0 | 16.0 | 0.00 | 0.22 | 0.22 | 76 | 1011.0 |
| 20260507021041 | 57 | 324 | 10.0 | 16.0 | 0.00 | 0.22 | 0.22 | 76 | 1010.8 |
| 20260507020541 | 57 | 291 | 7.0 | 16.0 | 0.00 | 0.22 | 0.22 | 76 | 1010.9 |
| 20260507020040 | 57 | 321 | 11.0 | 18.0 | 0.00 | 0.22 | 0.22 | 76 | 1010.5 |
| 20260507015600 | 58 | 307 | 13.0 | 18.0 | 0.00 | 0.22 | 0.22 | 76 | 1010.4 |
| 20260507015057 | 58 | 323 | 10.0 | 17.0 | 0.00 | 0.22 | 0.22 | 76 | 1010.4 |
| 20260507014533 | 58 | 331 | 9.0 | 14.0 | 0.00 | 0.22 | 0.22 | 77 | 1010.4 |
| 20260507014024 | 58 | 299 | 8.0 | 17.0 | 0.00 | 0.22 | 0.22 | 77 | 1010.3 |
| 20260507013538 | 58 | 306 | 8.0 | 17.0 | 0.00 | 0.22 | 0.22 | 76 | 1010.5 |
| 20260507013041 | 58 | 315 | 6.0 | 12.0 | 0.00 | 0.22 | 0.22 | 77 | 1010.5 |
| 20260507012533 | 58 | 304 | 3.0 | 8.0 | 0.00 | 0.22 | 0.22 | 77 | 1010.4 |
| 20260507012026 | 58 | 290 | 4.0 | 9.0 | 0.00 | 0.22 | 0.22 | 76 | 1010.6 |
| 20260507011544 | 58 | 288 | 6.0 | 9.0 | 0.00 | 0.22 | 0.22 | 76 | 1010.6 |
| 20260507011043 | 59 | 300 | 4.0 | 10.0 | 0.00 | 0.22 | 0.22 | 76 | 1010.5 |
| 20260507010540 | 59 | 279 | 3.0 | 11.0 | 0.00 | 0.22 | 0.22 | 76 | 1010.5 |
| 20260507010034 | 59 | 299 | 6.0 | 11.0 | 0.00 | 0.22 | 0.22 | 76 | 1010.5 |
| 20260507005525 | 59 | 284 | 4.0 | 9.0 | 0.00 | 0.22 | 0.22 | 76 | 1010.7 |
| 20260507005104 | 59 | 260 | 4.0 | 9.0 | 0.00 | 0.22 | 0.22 | 76 | 1010.9 |
| 20260507004535 | 59 | 282 | 5.0 | 9.0 | 0.00 | 0.22 | 0.22 | 75 | 1010.6 |
| 20260507004029 | 59 | 284 | 5.0 | 10.0 | 0.00 | 0.22 | 0.22 | 76 | 1010.5 |
| 20260507003545 | 60 | 259 | 5.0 | 13.0 | 0.00 | 0.22 | 0.22 | 75 | 1010.5 |
| 20260507003043 | 60 | 294 | 5.0 | 13.0 | 0.00 | 0.22 | 0.22 | 75 | 1010.4 |
| 20260507002540 | 60 | 286 | 6.0 | 12.0 | 0.00 | 0.22 | 0.22 | 75 | 1010.2 |
| 20260507002041 | 60 | 298 | 7.0 | 12.0 | 0.00 | 0.22 | 0.22 | 75 | 1010.0 |
| 20260507001533 | 60 | 295 | 6.0 | 11.0 | 0.00 | 0.22 | 0.22 | 75 | 1010.1 |
| 20260507001032 | 60 | 306 | 3.0 | 12.0 | 0.00 | 0.22 | 0.22 | 76 | 1009.9 |
| 20260507000527 | 61 | 329 | 5.0 | 14.0 | 0.00 | 0.22 | 0.22 | 75 | 1010.0 |
| 20260507000045 | 61 | 282 | 7.0 | 14.0 | 0.00 | 0.22 | 0.22 | 76 | 1010.1 |
| 20260506235540 | 61 | 292 | 7.0 | 14.0 | 0.00 | 0.22 | 0.22 | 75 | 1010.0 |
| 20260506235040 | 61 | 295 | 4.0 | 14.0 | 0.00 | 0.22 | 0.22 | 75 | 1009.6 |
| 20260506234525 | 62 | 297 | 7.0 | 16.0 | 0.00 | 0.22 | 0.22 | 75 | 1009.6 |
| 20260506234042 | 62 | 306 | 8.0 | 16.0 | 0.00 | 0.22 | 0.22 | 75 | 1009.1 |
| 20260506233533 | 62 | 323 | 7.0 | 9.0 | 0.00 | 0.22 | 0.22 | 76 | 1009.0 |
| 20260506233049 | 62 | 302 | 3.0 | 10.0 | 0.00 | 0.22 | 0.22 | 76 | 1009.1 |
| 20260506232539 | 62 | 259 | 4.0 | 10.0 | 0.00 | 0.22 | 0.22 | 75 | 1008.9 |
| 20260506232057 | 62 | 258 | 5.0 | 11.0 | 0.00 | 0.22 | 0.22 | 74 | 1008.8 |
| 20260506231528 | 62 | 309 | 5.0 | 11.0 | 0.00 | 0.22 | 0.22 | 75 | 1008.8 |
| 20260506231043 | 63 | 309 | 4.0 | 12.0 | 0.00 | 0.22 | 0.22 | 75 | 1008.8 |
| 20260506230601 | 63 | 294 | 6.0 | 12.0 | 0.00 | 0.22 | 0.22 | 75 | 1008.8 |
| 20260506230059 | 63 | 321 | 6.0 | 10.0 | 0.00 | 0.22 | 0.22 | 75 | 1008.8 |
| 20260506225528 | 63 | 277 | 5.0 | 10.0 | 0.00 | 0.22 | 0.22 | 76 | 1008.8 |
| 20260506225045 | 63 | 305 | 4.0 | 9.0 | 0.00 | 0.22 | 0.22 | 77 | 1008.7 |
| 20260506224544 | 63 | 293 | 2.0 | 9.0 | 0.00 | 0.22 | 0.22 | 77 | 1008.7 |
| 20260506224042 | 63 | 315 | 3.0 | 11.0 | 0.00 | 0.22 | 0.22 | 76 | 1008.6 |
| 20260506223540 | 63 | 282 | 7.0 | 11.0 | 0.00 | 0.22 | 0.22 | 76 | 1008.6 |
| 20260506223039 | 64 | 269 | 4.0 | 13.0 | 0.00 | 0.22 | 0.22 | 76 | 1008.6 |
| 20260506222556 | 64 | 298 | 7.0 | 13.0 | 0.00 | 0.22 | 0.22 | 76 | 1008.4 |
| 20260506222029 | 64 | 295 | 5.0 | 12.0 | 0.00 | 0.22 | 0.22 | 77 | 1008.4 |
| 20260506221548 | 64 | 290 | 6.0 | 12.0 | 0.00 | 0.22 | 0.22 | 77 | 1008.3 |
| 20260506221038 | 64 | 296 | 6.0 | 11.0 | 0.01 | 0.22 | 0.22 | 78 | 1008.4 |
| 20260506220540 | 64 | 304 | 4.0 | 11.0 | 0.01 | 0.22 | 0.22 | 79 | 1008.2 |
| 20260506220036 | 64 | 294 | 5.0 | 12.0 | 0.01 | 0.22 | 0.22 | 79 | 1008.1 |
| 20260506215552 | 64 | 275 | 6.0 | 15.0 | 0.01 | 0.22 | 0.22 | 80 | 1008.1 |
| 20260506215025 | 64 | 296 | 7.0 | 15.0 | 0.01 | 0.22 | 0.22 | 82 | 1008.0 |
| 20260506214542 | 65 | 297 | 5.0 | 13.0 | 0.01 | 0.22 | 0.22 | 84 | 1007.9 |
| 20260506214042 | 65 | 278 | 5.0 | 13.0 | 0.01 | 0.22 | 0.22 | 84 | 1007.8 |
| 20260506213532 | 65 | 273 | 5.0 | 10.0 | 0.01 | 0.22 | 0.22 | 86 | 1007.8 |
| 20260506213027 | 65 | 260 | 4.0 | 11.0 | 0.01 | 0.22 | 0.22 | 86 | 1007.7 |
| 20260506212604 | 65 | 256 | 5.0 | 11.0 | 0.01 | 0.22 | 0.22 | 85 | 1007.6 |
| 20260506212039 | 65 | 239 | 6.0 | 10.0 | 0.01 | 0.22 | 0.22 | 85 | 1007.6 |
| 20260506211530 | 66 | 261 | 4.0 | 11.0 | 0.01 | 0.22 | 0.22 | 84 | 1007.5 |
| 20260506211025 | 66 | 230 | 5.0 | 9.0 | 0.00 | 0.21 | 0.21 | 84 | 1007.3 |
| 20260506210543 | 66 | 269 | 4.0 | 9.0 | 0.00 | 0.21 | 0.21 | 84 | 1007.2 |
| 20260506210038 | 66 | 233 | 2.0 | 9.0 | 0.00 | 0.21 | 0.21 | 84 | 1007.1 |
| 20260506205529 | 66 | 217 | 3.0 | 9.0 | 0.00 | 0.21 | 0.21 | 84 | 1007.1 |
| 20260506205026 | 66 | 229 | 1.0 | 10.0 | 0.00 | 0.21 | 0.21 | 82 | 1007.0 |
| 20260506204543 | 67 | 244 | 5.0 | 10.0 | 0.00 | 0.21 | 0.21 | 82 | 1007.1 |
| 20260506204041 | 67 | 185 | 4.0 | 10.0 | 0.00 | 0.21 | 0.21 | 81 | 1007.0 |
| 20260506203538 | 67 | 240 | 4.0 | 10.0 | 0.00 | 0.21 | 0.21 | 82 | 1007.0 |
| 20260506203043 | 67 | 246 | 3.0 | 7.0 | 0.00 | 0.21 | 0.21 | 82 | 1006.9 |
| 20260506202535 | 67 | 197 | 4.0 | 9.0 | 0.00 | 0.21 | 0.21 | 81 | 1006.8 |
| 20260506202030 | 68 | 128 | 3.0 | 9.0 | 0.00 | 0.21 | 0.21 | 80 | 1006.8 |
| 20260506201547 | 68 | 226 | 2.0 | 10.0 | 0.00 | 0.21 | 0.21 | 80 | 1006.8 |
| 20260506201044 | 68 | 226 | 2.0 | 10.0 | 0.00 | 0.21 | 0.21 | 82 | 1006.8 |
| 20260506200541 | 68 | 215 | 4.0 | 10.0 | 0.00 | 0.21 | 0.21 | 82 | 1006.8 |
| 20260506200058 | 68 | 218 | 4.0 | 10.0 | 0.00 | 0.21 | 0.21 | 81 | 1006.8 |
| 20260506195529 | 68 | 194 | 5.0 | 10.0 | 0.00 | 0.21 | 0.21 | 83 | 1006.9 |
| 20260506195026 | 68 | 246 | 4.0 | 12.0 | 0.00 | 0.21 | 0.21 | 84 | 1007.0 |
| 20260506194603 | 67 | 219 | 3.0 | 12.0 | 0.00 | 0.21 | 0.21 | 84 | 1007.0 |
| 20260506194036 | 67 | 181 | 4.0 | 12.0 | 0.00 | 0.21 | 0.21 | 84 | 1007.0 |
| 20260506193552 | 67 | 191 | 5.0 | 11.0 | 0.00 | 0.21 | 0.21 | 88 | 1007.0 |
| 20260506193026 | 66 | 207 | 4.0 | 12.0 | 0.00 | 0.21 | 0.21 | 89 | 1007.0 |
| 20260506192544 | 66 | 193 | 9.0 | 12.0 | 0.00 | 0.21 | 0.21 | 89 | 1006.9 |
| 20260506192042 | 65 | 171 | 9.0 | 11.0 | 0.00 | 0.21 | 0.21 | 90 | 1006.7 |
| 20260506191539 | 65 | 167 | 7.0 | 9.0 | 0.00 | 0.21 | 0.21 | 90 | 1006.9 |
| 20260506191032 | 65 | 234 | 5.0 | 9.0 | 0.00 | 0.21 | 0.21 | 90 | 1007.1 |
| 20260506190525 | 64 | 198 | 3.0 | 9.0 | 0.00 | 0.21 | 0.21 | 90 | 1007.3 |
| 20260506190045 | 64 | 206 | 6.0 | 9.0 | 0.00 | 0.21 | 0.21 | 89 | 1007.2 |
| 20260506185539 | 64 | 222 | 4.0 | 8.0 | 0.00 | 0.21 | 0.21 | 89 | 1007.3 |
| 20260506185035 | 64 | 200 | 2.0 | 9.0 | 0.00 | 0.21 | 0.21 | 90 | 1007.3 |
| 20260506184532 | 64 | 199 | 2.0 | 9.0 | 0.00 | 0.21 | 0.21 | 89 | 1007.4 |
| 20260506184027 | 64 | 182 | 3.0 | 10.0 | 0.00 | 0.21 | 0.21 | 89 | 1007.5 |
| 20260506183544 | 64 | 178 | 2.0 | 11.0 | 0.00 | 0.21 | 0.21 | 89 | 1007.4 |
| 20260506183044 | 64 | 196 | 4.0 | 12.0 | 0.00 | 0.21 | 0.21 | 89 | 1007.6 |
| 20260506182542 | 64 | 218 | 4.0 | 12.0 | 0.00 | 0.21 | 0.21 | 89 | 1007.7 |
| 20260506182037 | 64 | 213 | 7.0 | 11.0 | 0.00 | 0.21 | 0.21 | 88 | 1007.6 |
| 20260506181530 | 64 | 182 | 4.0 | 11.0 | 0.00 | 0.21 | 0.21 | 88 | 1007.6 |
| 20260506181025 | 65 | 211 | 4.0 | 11.0 | 0.00 | 0.21 | 0.21 | 87 | 1007.7 |
| 20260506180542 | 65 | 266 | 4.0 | 11.0 | 0.00 | 0.21 | 0.21 | 86 | 1007.7 |
| 20260506175535 | 65 | 204 | 6.0 | 13.0 | 0.00 | 0.21 | 0.21 | 84 | 1007.5 |
| 20260506175026 | 65 | 233 | 7.0 | 14.0 | 0.00 | 0.21 | 0.21 | 84 | 1007.5 |
| 20260506174542 | 65 | 215 | 6.0 | 14.0 | 0.00 | 0.21 | 0.21 | 84 | 1007.4 |
| 20260506174038 | 65 | 200 | 6.0 | 11.0 | 0.00 | 0.21 | 0.21 | 84 | 1007.3 |
| 20260506173531 | 65 | 192 | 7.0 | 13.0 | 0.00 | 0.21 | 0.21 | 85 | 1007.4 |
| 20260506173026 | 65 | 186 | 6.0 | 13.0 | 0.00 | 0.21 | 0.21 | 85 | 1007.4 |
| 20260506172542 | 65 | 198 | 8.0 | 13.0 | 0.00 | 0.21 | 0.21 | 85 | 1007.3 |
| 20260506172039 | 65 | 192 | 7.0 | 13.0 | 0.00 | 0.21 | 0.21 | 85 | 1007.3 |
| 20260506171532 | 65 | 179 | 6.0 | 14.0 | 0.00 | 0.21 | 0.21 | 85 | 1007.4 |
| 20260506171025 | 64 | 185 | 7.0 | 13.0 | 0.00 | 0.21 | 0.21 | 85 | 1007.3 |
| 20260506170544 | 64 | 196 | 10.0 | 13.0 | 0.00 | 0.21 | 0.21 | 85 | 1007.3 |
| 20260506170044 | 64 | 196 | 7.0 | 13.0 | 0.00 | 0.21 | 0.21 | 86 | 1007.3 |
| 20260506165537 | 64 | 188 | 7.0 | 13.0 | 0.00 | 0.21 | 0.21 | 86 | 1007.3 |
| 20260506165033 | 64 | 210 | 6.0 | 12.0 | 0.00 | 0.21 | 0.21 | 86 | 1007.3 |
| 20260506164525 | 63 | 182 | 7.0 | 12.0 | 0.00 | 0.21 | 0.21 | 87 | 1007.5 |
| 20260506164045 | 63 | 219 | 6.0 | 11.0 | 0.00 | 0.21 | 0.21 | 87 | 1007.5 |
| 20260506163540 | 63 | 188 | 5.0 | 12.0 | 0.00 | 0.21 | 0.21 | 87 | 1007.4 |
| 20260506163036 | 63 | 186 | 6.0 | 12.0 | 0.00 | 0.21 | 0.21 | 87 | 1007.4 |
| 20260506162528 | 63 | 223 | 5.0 | 12.0 | 0.00 | 0.21 | 0.21 | 87 | 1007.5 |
| 20260506162047 | 63 | 229 | 5.0 | 12.0 | 0.00 | 0.21 | 0.21 | 87 | 1007.4 |
| 20260506161546 | 63 | 215 | 4.0 | 13.0 | 0.00 | 0.21 | 0.21 | 87 | 1007.4 |
| 20260506161045 | 63 | 200 | 9.0 | 13.0 | 0.00 | 0.21 | 0.21 | 87 | 1007.4 |
| 20260506160542 | 63 | 220 | 8.0 | 14.0 | 0.00 | 0.21 | 0.21 | 88 | 1007.5 |
| 20260506160045 | 63 | 199 | 9.0 | 21.0 | 0.00 | 0.21 | 0.21 | 88 | 1007.4 |
| 20260506155538 | 63 | 184 | 11.0 | 21.0 | 0.00 | 0.21 | 0.21 | 88 | 1007.3 |
| 20260506155040 | 63 | 175 | 13.0 | 21.0 | 0.00 | 0.21 | 0.21 | 88 | 1007.3 |
| 20260506154541 | 63 | 196 | 11.0 | 20.0 | 0.00 | 0.21 | 0.21 | 90 | 1007.3 |
| 20260506154037 | 62 | 162 | 14.0 | 21.0 | 0.00 | 0.21 | 0.21 | 90 | 1007.2 |
| 20260506153556 | 62 | 184 | 10.0 | 17.0 | 0.00 | 0.21 | 0.21 | 91 | 1006.9 |
| 20260506153031 | 62 | 190 | 11.0 | 16.0 | 0.01 | 0.21 | 0.21 | 91 | 1007.0 |
| 20260506152525 | 62 | 178 | 9.0 | 16.0 | 0.02 | 0.21 | 0.21 | 91 | 1007.1 |
| 20260506152044 | 62 | 180 | 13.0 | 16.0 | 0.04 | 0.21 | 0.21 | 91 | 1007.0 |
| 20260506151544 | 62 | 180 | 10.0 | 20.0 | 0.05 | 0.21 | 0.21 | 91 | 1007.1 |
| 20260506151104 | 62 | 177 | 11.0 | 20.0 | 0.06 | 0.21 | 0.21 | 92 | 1007.2 |
| 20260506150534 | 62 | 180 | 13.0 | 17.0 | 0.07 | 0.21 | 0.21 | 92 | 1007.1 |
| 20260506150031 | 61 | 156 | 13.0 | 15.0 | 0.08 | 0.21 | 0.21 | 92 | 1006.9 |
| 20260506145550 | 61 | 182 | 11.0 | 15.0 | 0.09 | 0.21 | 0.21 | 92 | 1006.7 |
| 20260506145026 | 61 | 175 | 10.0 | 15.0 | 0.10 | 0.21 | 0.21 | 92 | 1006.8 |
| 20260506144540 | 61 | 163 | 12.0 | 16.0 | 0.10 | 0.21 | 0.21 | 91 | 1006.8 |
| 20260506144037 | 61 | 176 | 12.0 | 16.0 | 0.11 | 0.21 | 0.21 | 91 | 1007.0 |
| 20260506143531 | 61 | 171 | 11.0 | 15.0 | 0.11 | 0.20 | 0.20 | 91 | 1007.3 |
| 20260506143027 | 60 | 164 | 11.0 | 17.0 | 0.13 | 0.20 | 0.20 | 91 | 1007.4 |
| 20260506142547 | 60 | 171 | 10.0 | 14.0 | 0.11 | 0.18 | 0.18 | 90 | 1007.5 |
| 20260506142044 | 60 | 164 | 12.0 | 16.0 | 0.11 | 0.17 | 0.17 | 90 | 1007.6 |
| 20260506141541 | 61 | 167 | 11.0 | 19.0 | 0.10 | 0.16 | 0.16 | 90 | 1007.9 |
| 20260506141038 | 61 | 188 | 12.0 | 15.0 | 0.08 | 0.14 | 0.14 | 89 | 1008.1 |